EW5212 Weather Reports


time (UTC)temp
F
wind
direction
speed
knots
gust
knots
rain 1hr
in
rain 24hr
in
rain mn
in
humidity
%
barometer
mb
20260503025015 50 0.0 0.0 0.00 0.00 0.00 82 1014.0
20260503024035 50 0.0 0.0 0.00 0.00 0.00 82 1014.2
20260503023035 50 0.0 0.0 0.00 0.00 0.00 83 1014.1
20260503022015 50 0.0 0.0 0.00 0.00 0.00 82 1014.1
20260503021015 50 0.0 0.0 0.00 0.00 0.00 83 1014.0
20260503020015 50 0.0 0.0 0.00 0.00 0.00 82 1014.0
20260503015015 50 0.0 0.0 0.00 0.00 0.00 82 1013.9
20260503014015 51 0.0 0.0 0.00 0.00 0.00 82 1013.9
20260503013015 51 0.0 0.0 0.00 0.00 0.00 80 1014.0
20260503012015 51 0.0 0.0 0.00 0.00 0.00 80 1013.8
20260503011015 51 0.0 0.0 0.00 0.00 0.00 78 1013.7
20260503010015 51 0.0 0.0 0.00 0.00 0.00 78 1013.6
20260503005015 51 0.0 0.0 0.00 0.00 0.00 78 1013.6
20260503004015 52 0.0 0.0 0.00 0.00 0.00 78 1013.4
20260503003015 52 0.0 0.0 0.00 0.00 0.00 78 1013.3
20260503002055 52 0.0 0.0 0.00 0.00 0.00 79 1013.2
20260503001015 53 0.0 0.0 0.00 0.00 0.00 77 1013.1
20260503000015 53 0.0 0.0 0.00 0.00 0.00 72 1012.9
20260502235015 54 0.0 0.0 0.00 0.00 0.00 69 1012.7
20260502234015 55 0.0 0.0 0.00 0.00 0.00 68 1012.6
20260502233016 56 0.0 0.0 0.00 0.00 0.00 67 1012.5
20260502232015 56 0.0 0.0 0.00 0.00 0.00 65 1012.4
20260502231015 57 0.0 0.0 0.00 0.00 0.00 62 1012.2
20260502230015 57 0.0 0.0 0.00 0.00 0.00 61 1012.2
20260502225015 58 0.0 0.0 0.00 0.00 0.00 59 1012.1
20260502224015 59 0.0 0.0 0.00 0.00 0.00 56 1012.0
20260502223015 59 0.0 0.0 0.00 0.00 0.00 55 1012.0
20260502222015 60 0.0 0.9 0.00 0.00 0.00 54 1012.1
20260502221015 61 0.0 0.9 0.00 0.00 0.00 50 1012.2
20260502220015 62 45 0.9 2.6 0.00 0.00 0.00 47 1012.3
20260502215015 62 0.0 0.9 0.00 0.00 0.00 49 1012.3
20260502214015 63 0.0 0.9 0.00 0.00 0.00 48 1012.4
20260502213037 62 0.0 1.7 0.00 0.00 0.00 48 1012.3
20260502212057 62 0.0 0.9 0.00 0.00 0.00 50 1012.3
20260502211017 61 68 0.9 2.6 0.00 0.00 0.00 49 1012.2
20260502210017 60 0.0 1.7 0.00 0.00 0.00 50 1012.1
20260502205017 60 0.0 0.9 0.00 0.00 0.00 51 1012.2
20260502204017 60 0.0 1.7 0.00 0.00 0.00 51 1012.2
20260502203017 61 0.0 1.7 0.00 0.00 0.00 47 1012.3
20260502202037 61 0.0 1.7 0.00 0.00 0.00 48 1012.3
20260502201017 61 68 0.9 1.7 0.00 0.00 0.00 49 1012.4
20260502200037 61 0.0 0.9 0.00 0.00 0.00 49 1012.3
20260502195017 61 68 0.9 1.7 0.00 0.00 0.00 49 1012.5
20260502194017 62 68 0.9 2.6 0.00 0.00 0.00 47 1012.4
20260502193137 62 0 0.9 1.7 0.00 0.00 0.00 54 1012.6
20260502192017 62 68 0.9 3.5 0.00 0.00 0.00 48 1012.6
20260502191055 61 68 0.9 2.6 0.00 0.00 0.00 49 1012.7
20260502190017 61 45 0.9 1.7 0.00 0.00 0.00 48 1013.0
20260502185037 61 0.0 1.7 0.00 0.00 0.00 47 1013.2
20260502184037 62 23 0.9 2.6 0.00 0.00 0.00 47 1013.2
20260502183017 61 0.0 0.9 0.00 0.00 0.00 50 1013.2
20260502182016 61 45 0.9 1.7 0.00 0.00 0.00 49 1013.6
20260502181017 61 45 0.9 1.7 0.00 0.00 0.00 52 1013.6
20260502164017 56 0.0 1.7 0.00 0.00 0.00 59 1015.1
20260502163017 56 0.0 2.6 0.00 0.00 0.00 57 1015.0
20260502162036 56 45 0.9 2.6 0.00 0.00 0.00 58 1015.0
20260502161016 56 0.0 2.6 0.00 0.00 0.00 58 1015.3
20260502152016 54 45 0.9 2.6 0.00 0.00 0.00 62 1015.5
20260502151016 55 0.0 0.9 0.00 0.00 0.00 62 1015.3
20260502123016 51 0.0 0.0 0.00 0.00 0.00 76 1014.5
20260502122016 51 0.0 1.7 0.00 0.00 0.00 81 1014.4
20260502121016 51 0.0 0.0 0.00 0.00 0.00 81 1014.3
20260502115016 50 0.0 0.9 0.00 0.00 0.00 85 1014.2
20260502114036 49 0.0 0.0 0.00 0.00 0.00 88 1014.4
20260502113036 49 0.0 0.0 0.00 0.00 0.00 90 1014.3
20260502112016 48 0.0 0.0 0.00 0.00 0.00 92 1014.3
20260502111016 48 0.0 0.0 0.00 0.00 0.00 93 1014.2
20260502110016 47 0.0 0.0 0.00 0.00 0.00 93 1014.3
20260502105016 47 0.0 0.0 0.00 0.00 0.00 94 1014.3
20260502104016 47 0.0 0.0 0.00 0.00 0.00 94 1014.0
20260502103016 46 0.0 0.0 0.00 0.00 0.00 94 1014.0
20260502102016 46 0.0 0.0 0.00 0.00 0.00 94 1013.9
20260502101017 46 0.0 0.0 0.00 0.00 0.00 94 1013.8
20260502091016 46 0.0 0.0 0.00 0.00 0.00 93 1013.5
20260502071016 50 0.0 0.0 0.00 0.00 0.00 87 1012.9
20260502070016 50 0.0 0.0 0.00 0.00 0.00 86 1013.1
20260502065016 51 0.0 0.0 0.00 0.00 0.00 86 1013.2
20260502064056 51 0.0 0.0 0.00 0.00 0.00 85 1013.1
20260502063016 52 0.0 0.0 0.00 0.00 0.00 84 1013.1
20260502062016 53 0.0 0.0 0.00 0.00 0.00 83 1013.1
20260502061036 53 0.0 0.0 0.00 0.00 0.00 82 1013.2
20260502060036 54 0.0 0.0 0.00 0.00 0.00 81 1013.3
20260502055016 55 0.0 0.0 0.00 0.00 0.00 79 1013.5
20260502054016 55 0.0 0.0 0.00 0.00 0.00 78 1013.6
20260502053056 55 0.0 1.7 0.00 0.00 0.00 78 1013.5
20260502052016 56 0.0 0.0 0.00 0.00 0.00 77 1013.2
20260502051016 56 0.0 0.0 0.00 0.00 0.00 77 1013.3
20260502050016 56 0.0 1.7 0.00 0.00 0.00 76 1013.3
20260502045016 56 0.0 0.0 0.00 0.00 0.00 76 1013.2
20260502044016 56 0 0.9 2.6 0.00 0.00 0.00 76 1013.4
20260502043016 56 0.0 2.6 0.00 0.00 0.00 75 1013.6
20260502042036 57 0.0 2.6 0.00 0.00 0.00 75 1013.5
20260502041016 57 293 0.9 5.2 0.00 0.00 0.00 74 1013.4
20260502040016 57 0.0 0.9 0.00 0.00 0.00 73 1013.3
20260502035016 57 113 0.9 6.1 0.00 0.00 0.00 73 1013.2
20260502034015 58 0.0 1.7 0.00 0.00 0.00 71 1013.2
20260502033015 58 0.0 3.5 0.00 0.00 0.00 70 1013.2
20260502032016 58 0.0 0.9 0.00 0.00 0.00 69 1013.1
20260502031015 58 0.0 0.0 0.00 0.00 0.00 68 1013.0
20260502030015 59 293 0.9 3.5 0.00 0.00 0.00 68 1013.0